Time,TemperatureF,DewpointF,PressureIn,WindDirection,WindDirectionDegrees,WindSpeedMPH,WindSpeedGustMPH,Humidity,HourlyPrecipIn,Conditions,Clouds,dailyrainin,SolarRadiationWatts/m^2,SoftwareType,DateUTC
2013-05-09 00:01:00,41.0,30.0,-100.00,North,354,3.0,5.0,65,0.00,,,0.05,0.000000,,2013-05-09 06:01:00,
2013-05-09 00:11:00,41.0,30.0,-100.00,North,354,3.0,5.0,65,0.00,,,0.05,0.000000,,2013-05-09 06:11:00,
2013-05-09 00:21:00,41.0,30.0,-100.00,North,354,3.0,5.0,65,0.00,,,0.05,0.000000,,2013-05-09 06:21:00,
2013-05-09 00:30:00,41.0,29.0,-100.00,NNW,328,2.0,4.0,63,0.00,,,0.05,0.000000,,2013-05-09 06:30:00,
2013-05-09 00:52:00,41.0,29.0,-100.00,NNW,328,2.0,4.0,63,0.00,,,0.05,0.000000,,2013-05-09 06:52:00,
2013-05-09 01:01:00,41.0,29.0,-100.00,NNW,328,2.0,4.0,63,0.00,,,0.05,0.000000,,2013-05-09 07:01:00,
2013-05-09 01:12:00,41.0,29.0,-100.00,NNW,328,2.0,4.0,63,0.00,,,0.05,0.000000,,2013-05-09 07:12:00,
2013-05-09 01:21:00,41.0,29.0,-100.00,NNW,328,2.0,4.0,63,0.00,,,0.05,0.000000,,2013-05-09 07:21:00,
2013-05-09 01:30:00,41.0,30.0,-100.00,NW,317,3.0,4.0,64,0.00,,,0.05,0.000000,,2013-05-09 07:30:00,
2013-05-09 01:52:00,41.0,30.0,-100.00,NW,317,3.0,4.0,64,0.00,,,0.05,0.000000,,2013-05-09 07:52:00,
2013-05-09 02:02:00,41.0,30.0,-100.00,NW,317,3.0,4.0,64,0.00,,,0.05,0.000000,,2013-05-09 08:02:00,
2013-05-09 02:11:00,41.0,30.0,-100.00,NW,317,3.0,4.0,64,0.00,,,0.05,0.000000,,2013-05-09 08:11:00,
2013-05-09 02:21:00,41.0,30.0,-100.00,NW,317,3.0,4.0,64,0.00,,,0.05,0.000000,,2013-05-09 08:21:00,
2013-05-09 02:30:00,39.0,30.0,-100.00,NNW,335,1.0,4.0,71,0.00,,,0.05,0.000000,,2013-05-09 08:30:00,
2013-05-09 02:52:00,39.0,30.0,-100.00,NNW,335,1.0,4.0,71,0.00,,,0.05,0.000000,,2013-05-09 08:52:00,
2013-05-09 03:02:00,39.0,30.0,-100.00,NNW,335,1.0,4.0,71,0.00,,,0.05,0.000000,,2013-05-09 09:02:00,
2013-05-09 03:11:00,39.0,30.0,-100.00,NNW,335,1.0,4.0,71,0.00,,,0.05,0.000000,,2013-05-09 09:11:00,
2013-05-09 03:21:00,39.0,30.0,-100.00,NNW,335,1.0,4.0,71,0.00,,,0.05,0.000000,,2013-05-09 09:21:00,
2013-05-09 03:30:00,40.0,31.0,-100.00,North,354,2.0,3.0,70,0.00,,,-99.99,0.000000,,2013-05-09 09:30:00,
2013-05-09 03:53:00,40.0,31.0,-100.00,North,354,2.0,3.0,70,0.00,,,-99.99,0.000000,,2013-05-09 09:53:00,
2013-05-09 04:02:00,40.0,31.0,-100.00,North,354,2.0,3.0,70,0.00,,,-99.99,0.000000,,2013-05-09 10:02:00,
2013-05-09 04:12:00,40.0,31.0,-100.00,North,354,2.0,3.0,70,0.00,,,-99.99,0.000000,,2013-05-09 10:12:00,
2013-05-09 04:22:00,40.0,31.0,-100.00,North,354,2.0,3.0,70,0.00,,,-99.99,0.000000,,2013-05-09 10:22:00,
2013-05-09 04:30:00,40.0,32.0,-100.00,NNE,17,0.0,2.0,73,0.00,,,0.02,0.000000,,2013-05-09 10:30:00,
2013-05-09 04:52:00,40.0,32.0,-100.00,NNE,17,0.0,2.0,73,0.00,,,0.02,0.000000,,2013-05-09 10:52:00,
2013-05-09 05:02:00,40.0,32.0,-100.00,NNE,17,0.0,2.0,73,0.00,,,0.02,0.000000,,2013-05-09 11:02:00,
2013-05-09 05:12:00,40.0,32.0,-100.00,NNE,17,0.0,2.0,73,0.00,,,0.02,0.000000,,2013-05-09 11:12:00,
2013-05-09 05:22:00,40.0,32.0,-100.00,NNE,17,0.0,2.0,73,0.00,,,0.02,0.000000,,2013-05-09 11:22:00,
2013-05-09 05:30:00,40.0,33.0,-100.00,NE,35,0.0,2.0,75,0.00,,,0.00,0.000000,,2013-05-09 11:30:00,
2013-05-09 05:52:00,40.0,33.0,-100.00,NE,35,0.0,2.0,75,0.00,,,0.00,0.000000,,2013-05-09 11:52:00,
2013-05-09 06:01:00,40.0,33.0,-100.00,NE,35,0.0,2.0,75,0.00,,,0.00,0.000000,,2013-05-09 12:01:00,
2013-05-09 06:11:00,40.0,33.0,-100.00,NE,35,0.0,2.0,75,0.00,,,0.00,0.000000,,2013-05-09 12:11:00,
2013-05-09 06:22:00,40.0,33.0,-100.00,NE,35,0.0,2.0,75,0.00,,,0.00,0.000000,,2013-05-09 12:22:00,
2013-05-09 06:30:00,41.0,33.0,-100.00,NE,42,3.0,4.0,72,0.00,,,0.00,1.000000,,2013-05-09 12:30:00,
2013-05-09 06:52:00,41.0,33.0,-100.00,NE,42,3.0,4.0,72,0.00,,,0.00,1.000000,,2013-05-09 12:52:00,
2013-05-09 07:01:00,41.0,33.0,-100.00,NE,42,3.0,4.0,72,0.00,,,0.00,1.000000,,2013-05-09 13:01:00,
2013-05-09 07:12:00,41.0,33.0,-100.00,NE,42,3.0,4.0,72,0.00,,,0.00,1.000000,,2013-05-09 13:12:00,
2013-05-09 07:21:00,41.0,33.0,-100.00,NE,42,3.0,4.0,72,0.00,,,0.00,1.000000,,2013-05-09 13:21:00,
2013-05-09 07:30:00,43.0,34.0,-100.00,NE,43,2.0,4.0,69,0.00,,,0.00,42.000000,,2013-05-09 13:30:00,
2013-05-09 07:52:00,43.0,34.0,-100.00,NE,43,2.0,4.0,69,0.00,,,0.00,42.000000,,2013-05-09 13:52:00,
2013-05-09 08:01:00,43.0,34.0,-100.00,NE,43,2.0,4.0,69,0.00,,,0.00,42.000000,,2013-05-09 14:01:00,
2013-05-09 08:11:00,43.0,34.0,-100.00,NE,43,2.0,4.0,69,0.00,,,0.00,42.000000,,2013-05-09 14:11:00,
2013-05-09 08:21:00,43.0,34.0,-100.00,NE,43,2.0,4.0,69,0.00,,,0.00,42.000000,,2013-05-09 14:21:00,
2013-05-09 08:30:00,45.0,33.0,-100.00,SSE,149,3.0,5.0,63,0.00,,,0.00,138.000000,,2013-05-09 14:30:00,
2013-05-09 08:52:00,45.0,33.0,-100.00,SSE,149,3.0,5.0,63,0.00,,,0.00,138.000000,,2013-05-09 14:52:00,
2013-05-09 09:01:00,45.0,33.0,-100.00,SSE,149,3.0,5.0,63,0.00,,,0.00,138.000000,,2013-05-09 15:01:00,
2013-05-09 09:11:00,45.0,33.0,-100.00,SSE,149,3.0,5.0,63,0.00,,,0.00,138.000000,,2013-05-09 15:11:00,
2013-05-09 09:21:00,45.0,33.0,-100.00,SSE,149,3.0,5.0,63,0.00,,,0.00,138.000000,,2013-05-09 15:21:00,
2013-05-09 09:30:00,46.0,32.0,-100.00,East,92,4.0,7.0,58,0.00,,,0.00,240.000000,,2013-05-09 15:30:00,
2013-05-09 09:53:00,46.0,32.0,-100.00,East,92,4.0,7.0,58,0.00,,,0.00,240.000000,,2013-05-09 15:53:00,
2013-05-09 10:03:00,46.0,32.0,-100.00,East,92,4.0,7.0,58,0.00,,,0.00,240.000000,,2013-05-09 16:03:00,
2013-05-09 10:12:00,46.0,32.0,-100.00,East,92,4.0,7.0,58,0.00,,,0.00,240.000000,,2013-05-09 16:12:00,
2013-05-09 10:22:00,46.0,32.0,-100.00,East,92,4.0,7.0,58,0.00,,,0.00,240.000000,,2013-05-09 16:22:00,
2013-05-09 10:30:00,48.0,36.0,-100.00,SE,132,4.0,7.0,63,0.00,,,0.00,343.000000,,2013-05-09 16:30:00,
2013-05-09 10:53:00,48.0,36.0,-100.00,SE,132,4.0,7.0,63,0.00,,,0.00,343.000000,,2013-05-09 16:53:00,
2013-05-09 11:02:00,48.0,36.0,-100.00,SE,132,4.0,7.0,63,0.00,,,0.00,343.000000,,2013-05-09 17:02:00,
2013-05-09 11:12:00,48.0,36.0,-100.00,SE,132,4.0,7.0,63,0.00,,,0.00,343.000000,,2013-05-09 17:12:00,
2013-05-09 11:21:00,48.0,36.0,-100.00,SE,132,4.0,7.0,63,0.00,,,0.00,343.000000,,2013-05-09 17:21:00,
2013-05-09 11:30:00,47.0,35.0,-100.00,SE,139,5.0,9.0,64,0.00,,,0.00,324.000000,,2013-05-09 17:30:00,
2013-05-09 11:55:00,47.0,35.0,-100.00,SE,139,5.0,9.0,64,0.00,,,0.00,324.000000,,2013-05-09 17:55:00,
2013-05-09 12:01:00,47.0,35.0,-100.00,SE,139,5.0,9.0,64,0.00,,,0.00,324.000000,,2013-05-09 18:01:00,
2013-05-09 12:12:00,47.0,35.0,-100.00,SE,139,5.0,9.0,64,0.00,,,0.00,324.000000,,2013-05-09 18:12:00,
2013-05-09 12:21:00,47.0,35.0,-100.00,SE,139,5.0,9.0,64,0.00,,,0.00,324.000000,,2013-05-09 18:21:00,
2013-05-09 12:30:00,47.0,38.0,-100.00,SSE,166,3.0,8.0,72,0.00,,,0.00,294.000000,,2013-05-09 18:30:00,
2013-05-09 13:01:00,47.0,38.0,-100.00,SSE,166,3.0,8.0,72,0.00,,,0.00,294.000000,,2013-05-09 19:01:00,
2013-05-09 13:11:00,47.0,38.0,-100.00,SSE,166,3.0,8.0,72,0.00,,,0.00,294.000000,,2013-05-09 19:11:00,
2013-05-09 13:21:00,47.0,38.0,-100.00,SSE,166,3.0,8.0,72,0.00,,,0.00,294.000000,,2013-05-09 19:21:00,
2013-05-09 13:30:00,46.0,39.0,-100.00,SSW,196,3.0,7.0,76,0.01,,,0.01,245.000000,,2013-05-09 19:30:00,
2013-05-09 14:01:00,46.0,39.0,-100.00,SSW,196,3.0,7.0,76,0.01,,,0.01,245.000000,,2013-05-09 20:01:00,
2013-05-09 14:11:00,46.0,39.0,-100.00,SSW,196,3.0,7.0,76,0.01,,,0.01,245.000000,,2013-05-09 20:11:00,
2013-05-09 14:21:00,46.0,39.0,-100.00,SSW,196,3.0,7.0,76,0.01,,,0.01,245.000000,,2013-05-09 20:21:00,
2013-05-09 14:30:00,53.0,41.0,-100.00,WSW,258,4.0,7.0,63,0.01,,,0.02,1010.000000,,2013-05-09 20:30:00,
2013-05-09 15:01:00,53.0,41.0,-100.00,WSW,258,4.0,7.0,63,0.01,,,0.02,1010.000000,,2013-05-09 21:01:00,
2013-05-09 15:11:00,53.0,41.0,-100.00,WSW,258,4.0,7.0,63,0.01,,,0.02,1010.000000,,2013-05-09 21:11:00,
2013-05-09 15:22:00,53.0,41.0,-100.00,WSW,258,4.0,7.0,63,0.01,,,0.02,1010.000000,,2013-05-09 21:22:00,
2013-05-09 15:30:00,55.0,37.0,-100.00,West,259,3.0,9.0,51,0.00,,,0.02,819.000000,,2013-05-09 21:30:00,
2013-05-09 15:53:00,55.0,37.0,-100.00,West,259,3.0,9.0,51,0.00,,,0.02,819.000000,,2013-05-09 21:53:00,
2013-05-09 16:03:00,55.0,37.0,-100.00,West,259,3.0,9.0,51,0.00,,,0.02,819.000000,,2013-05-09 22:03:00,
2013-05-09 16:12:00,55.0,37.0,-100.00,West,259,3.0,9.0,51,0.00,,,0.02,819.000000,,2013-05-09 22:12:00,
2013-05-09 16:22:00,55.0,37.0,-100.00,West,259,3.0,9.0,51,0.00,,,0.02,819.000000,,2013-05-09 22:22:00,
2013-05-09 16:30:00,55.0,38.0,-100.00,WNW,302,5.0,10.0,52,0.00,,,0.02,513.000000,,2013-05-09 22:30:00,
2013-05-09 16:52:00,55.0,38.0,-100.00,WNW,302,5.0,10.0,52,0.00,,,0.02,513.000000,,2013-05-09 22:52:00,
2013-05-09 17:02:00,55.0,38.0,-100.00,WNW,302,5.0,10.0,52,0.00,,,0.02,513.000000,,2013-05-09 23:02:00,
2013-05-09 17:11:00,55.0,38.0,-100.00,WNW,302,5.0,10.0,52,0.00,,,0.02,513.000000,,2013-05-09 23:11:00,
2013-05-09 17:21:00,55.0,38.0,-100.00,WNW,302,5.0,10.0,52,0.00,,,0.02,513.000000,,2013-05-09 23:21:00,
2013-05-09 17:30:00,52.0,39.0,-100.00,North,352,8.0,13.0,62,0.00,,,0.02,424.000000,,2013-05-09 23:30:00,
2013-05-09 17:52:00,52.0,39.0,-100.00,North,352,8.0,13.0,62,0.00,,,0.02,424.000000,,2013-05-09 23:52:00,
2013-05-09 18:01:00,52.0,39.0,-100.00,North,352,8.0,13.0,62,0.00,,,0.02,424.000000,,2013-05-10 00:01:00,
2013-05-09 18:11:00,52.0,39.0,-100.00,North,352,8.0,13.0,62,0.00,,,0.02,424.000000,,2013-05-10 00:11:00,
2013-05-09 18:21:00,52.0,39.0,-100.00,North,352,8.0,13.0,62,0.00,,,0.02,424.000000,,2013-05-10 00:21:00,
2013-05-09 18:30:00,50.0,37.0,-100.00,North,355,6.0,14.0,61,0.00,,,0.02,413.000000,,2013-05-10 00:30:00,
2013-05-09 18:52:00,50.0,37.0,-100.00,North,355,6.0,14.0,61,0.00,,,0.02,413.000000,,2013-05-10 00:52:00,
2013-05-09 19:01:00,50.0,37.0,-100.00,North,355,6.0,14.0,61,0.00,,,0.02,413.000000,,2013-05-10 01:01:00,
2013-05-09 19:11:00,50.0,37.0,-100.00,North,355,6.0,14.0,61,0.00,,,0.02,413.000000,,2013-05-10 01:11:00,
2013-05-09 19:21:00,50.0,37.0,-100.00,North,355,6.0,14.0,61,0.00,,,0.02,413.000000,,2013-05-10 01:21:00,
2013-05-09 19:30:00,48.0,35.0,-100.00,NE,36,5.0,9.0,60,0.00,,,0.02,77.000000,,2013-05-10 01:30:00,
2013-05-09 19:52:00,48.0,35.0,-100.00,NE,36,5.0,9.0,60,0.00,,,0.02,77.000000,,2013-05-10 01:52:00,
2013-05-09 20:01:00,48.0,35.0,-100.00,NE,36,5.0,9.0,60,0.00,,,0.02,77.000000,,2013-05-10 02:01:00,
2013-05-09 20:11:00,48.0,35.0,-100.00,NE,36,5.0,9.0,60,0.00,,,0.02,77.000000,,2013-05-10 02:11:00,
2013-05-09 20:21:00,48.0,35.0,-100.00,NE,36,5.0,9.0,60,0.00,,,0.02,77.000000,,2013-05-10 02:21:00,
2013-05-09 20:30:00,46.0,35.0,-100.00,North,2,2.0,6.0,65,0.00,,,0.02,16.000000,,2013-05-10 02:30:00,
2013-05-09 20:52:00,46.0,35.0,-100.00,North,2,2.0,6.0,65,0.00,,,0.02,16.000000,,2013-05-10 02:52:00,
2013-05-09 21:01:00,46.0,35.0,-100.00,North,2,2.0,6.0,65,0.00,,,0.02,16.000000,,2013-05-10 03:01:00,
2013-05-09 21:11:00,46.0,35.0,-100.00,North,2,2.0,6.0,65,0.00,,,0.02,16.000000,,2013-05-10 03:11:00,
2013-05-09 21:21:00,46.0,35.0,-100.00,North,2,2.0,6.0,65,0.00,,,0.02,16.000000,,2013-05-10 03:21:00,
2013-05-09 21:30:00,44.0,35.0,-100.00,NE,40,3.0,5.0,70,0.00,,,0.02,0.000000,,2013-05-10 03:30:00,
2013-05-09 21:53:00,44.0,35.0,-100.00,NE,40,3.0,5.0,70,0.00,,,0.02,0.000000,,2013-05-10 03:53:00,
2013-05-09 22:03:00,44.0,35.0,-100.00,NE,40,3.0,5.0,70,0.00,,,0.02,0.000000,,2013-05-10 04:03:00,
2013-05-09 22:12:00,44.0,35.0,-100.00,NE,40,3.0,5.0,70,0.00,,,0.02,0.000000,,2013-05-10 04:12:00,
2013-05-09 22:22:00,44.0,35.0,-100.00,NE,40,3.0,5.0,70,0.00,,,0.02,0.000000,,2013-05-10 04:22:00,
2013-05-09 22:30:00,42.0,34.0,-100.00,NE,55,1.0,3.0,74,0.00,,,0.02,0.000000,,2013-05-10 04:30:00,
2013-05-09 22:53:00,42.0,34.0,-100.00,NE,55,1.0,3.0,74,0.00,,,0.02,0.000000,,2013-05-10 04:53:00,
2013-05-09 23:02:00,42.0,34.0,-100.00,NE,55,1.0,3.0,74,0.00,,,0.02,0.000000,,2013-05-10 05:02:00,
2013-05-09 23:12:00,42.0,34.0,-100.00,NE,55,1.0,3.0,74,0.00,,,0.02,0.000000,,2013-05-10 05:12:00,
2013-05-09 23:21:00,42.0,34.0,-100.00,NE,55,1.0,3.0,74,0.00,,,0.02,0.000000,,2013-05-10 05:21:00,
2013-05-09 23:30:00,42.0,34.0,-100.00,NE,36,3.0,4.0,73,0.00,,,0.02,0.000000,,2013-05-10 05:30:00,
2013-05-09 23:52:00,42.0,34.0,-100.00,NE,36,3.0,4.0,73,0.00,,,0.02,0.000000,,2013-05-10 05:52:00,